Tracking 35331 objects as of 15-Sep-2026
HD Live streaming from Space Station
objects crossing your sky now

COSMOS 2421 DEB


COSMOS 2421 DEB is no longer on orbit


NORAD ID: 33068
Int'l Code: 2006-026KG
Launch date: June 25, 2006
Source: Commonwealth of Independent States (former USSR) (CIS)
Launch site: TYURATAM MISSILE AND SPACE COMPLEX (TTMTR)
Decay date: 2008-06-24

Note: This is SATELLITE DEBRIS
Your satellite tracking list
Your tracking list is empty




NASA's NSSDC Master Catalog

Two Line Element Set (TLE):
1 33068U 06026KG  08175.26510069  .02703798  60824-2  65168-2 0  9990
2 33068 065.1351 063.3532 0035204 239.9542 119.8359 15.96433427  2252
Source of the keplerian elements: AFSPC